This is the latest recevied weather packets stored in our database for station/object VK1KCM-5. If no packets are shown the sender has not sent any weather packets the latest 10 day(s).
| Time | Temp. | Humidity | Pressure | Rain* | Wind** | Luminosity | Snow |
|---|---|---|---|---|---|---|---|
| 1787448773 | 13.33° C | 66% | 1024.4 hPa | 0 mm | - | - | - |
| 1787448479 | 13.33° C | 67% | 1024.6 hPa | 0 mm | - | - | - |
| 1787448203 | 12.78° C | 67% | 1024.4 hPa | 0 mm | - | - | - |
| 1787447943 | 12.22° C | 69% | 1025 hPa | 0 mm | - | - | - |
| 1787447693 | 12.22° C | 67% | 1025.1 hPa | 0 mm | - | - | - |
| 1787447436 | 12.22° C | 71% | 1024.9 hPa | 0 mm | - | - | - |
| 1787447178 | 12.22° C | 71% | 1024.9 hPa | 0 mm | - | - | - |
| 1787446883 | 12.22° C | 69% | 1025 hPa | 0 mm | - | - | - |
| 1787446603 | 12.22° C | 70% | 1025 hPa | 0 mm | - | - | - |
| 1787446333 | 12.22° C | 72% | 1025.2 hPa | 0 mm | - | - | - |
| 1787446038 | 11.67° C | 74% | 1025.6 hPa | 0 mm | - | - | - |
| 1787445778 | 11.67° C | 75% | 1025.4 hPa | 0 mm | - | - | - |
| 1787445491 | 12.22° C | 72% | 1025.5 hPa | 0 mm | - | - | - |
| 1787445248 | 11.67° C | 74% | 1025.8 hPa | 0 mm | - | - | - |
| 1787444973 | 11.67° C | 75% | 1025.7 hPa | 0 mm | - | - | - |
| 1787444698 | 11.67° C | 76% | 1025.8 hPa | 0 mm | - | - | - |
| 1787444433 | 11.11° C | 77% | 1026.2 hPa | 0 mm | - | - | - |
| 1787444173 | 11.11° C | 77% | 1026.2 hPa | 0 mm | - | - | - |
| 1787443908 | 10.56° C | 78% | 1025.9 hPa | 0 mm | - | - | - |
| 1787443633 | 10.56° C | 79% | 1026.2 hPa | 0 mm | - | - | - |
| 1787443370 | 10° C | 80% | 1026.1 hPa | 0 mm | - | - | - |
* Rain latest hour (hover to see other rain measurements)
** Current wind speed in m/s (hover to see current wind gust speed)